TimePDT,TemperatureF,Dew PointF,Humidity,Sea Level PressureIn,VisibilityMPH,Wind Direction,Wind SpeedMPH,Gust SpeedMPH,PrecipitationIn,Events,Conditions,WindDirDegrees,DateUTC
12:53 AM,53.1,51.1,93,30.04,10.0,SE,3.5,-,N/A,,Overcast,130,2012-11-02 07:53:00
1:53 AM,52.0,51.1,97,30.04,10.0,East,5.8,-,N/A,,Overcast,90,2012-11-02 08:53:00
2:53 AM,52.0,50.0,93,30.05,10.0,Calm,Calm,-,N/A,,Mostly Cloudy,0,2012-11-02 09:53:00
3:53 AM,51.1,50.0,96,30.05,10.0,Calm,Calm,-,N/A,,Mostly Cloudy,0,2012-11-02 10:53:00
4:53 AM,51.1,50.0,96,30.04,10.0,ESE,5.8,-,N/A,,Overcast,110,2012-11-02 11:53:00
5:53 AM,51.1,50.0,96,30.04,10.0,SE,3.5,-,N/A,,Mostly Cloudy,140,2012-11-02 12:53:00
6:53 AM,52.0,50.0,93,30.01,10.0,ESE,9.2,-,N/A,,Overcast,120,2012-11-02 13:53:00
7:53 AM,51.1,48.9,92,30.02,10.0,SSE,4.6,-,N/A,,Mostly Cloudy,160,2012-11-02 14:53:00
8:53 AM,53.1,50.0,89,30.03,10.0,SE,4.6,-,N/A,,Mostly Cloudy,140,2012-11-02 15:53:00
9:53 AM,54.0,51.1,90,30.04,10.0,Calm,Calm,-,N/A,,Mostly Cloudy,0,2012-11-02 16:53:00
10:53 AM,55.9,52.0,87,30.03,10.0,East,4.6,-,N/A,,Mostly Cloudy,90,2012-11-02 17:53:00
11:53 AM,61.0,51.1,70,30.02,10.0,ESE,9.2,-,N/A,,Mostly Cloudy,120,2012-11-02 18:53:00
12:53 PM,62.1,50.0,65,30.01,10.0,SE,10.4,-,N/A,,Mostly Cloudy,140,2012-11-02 19:53:00
1:53 PM,62.1,50.0,65,29.99,10.0,East,5.8,-,N/A,,Overcast,90,2012-11-02 20:53:00
2:53 PM,57.9,53.1,84,30.01,5.0,Calm,Calm,-,0.03,Rain,Rain,0,2012-11-02 21:53:00
3:53 PM,57.0,54.0,89,30.01,8.0,Calm,Calm,-,0.06,Rain,Light Rain,0,2012-11-02 22:53:00
4:53 PM,55.9,52.0,87,29.99,10.0,East,9.2,-,0.01,,Overcast,100,2012-11-02 23:53:00
5:53 PM,55.0,52.0,89,29.99,10.0,ESE,5.8,-,0.00,,Mostly Cloudy,120,2012-11-03 00:53:00
6:53 PM,55.0,51.1,86,30.01,10.0,SE,5.8,-,N/A,,Overcast,140,2012-11-03 01:53:00
7:53 PM,55.0,52.0,89,30.01,10.0,SSE,3.5,-,N/A,,Overcast,150,2012-11-03 02:53:00
8:53 PM,55.0,53.1,93,30.00,10.0,East,6.9,-,0.03,Rain,Light Rain,80,2012-11-03 03:53:00
9:53 PM,54.0,53.1,97,30.01,5.0,ESE,5.8,-,0.01,Rain,Light Rain,110,2012-11-03 04:53:00
10:53 PM,54.0,52.0,93,30.01,10.0,ESE,8.1,-,0.00,Rain,Light Rain,120,2012-11-03 05:53:00
11:53 PM,54.0,52.0,93,30.00,10.0,ESE,10.4,-,0.01,,Overcast,110,2012-11-03 06:53:00